This is the latest recevied weather packets stored in our database for station/object DO1BDB-12. If no packets are shown the sender has not sent any weather packets the latest 10 day(s).
| Time | Temp. | Humidity | Pressure | Rain* | Wind** | Luminosity | Snow |
|---|---|---|---|---|---|---|---|
| 1787727290 | 18.89° C | 67% | 102.2 hPa | - | - | - | - |
| 1787727224 | 18.33° C | 67% | 102.2 hPa | - | - | - | - |
| 1787727159 | 18.33° C | 66% | 102.2 hPa | - | - | - | - |
| 1787727092 | 20° C | 61% | 102.2 hPa | - | - | - | - |
| 1787727026 | 21.11° C | 59% | 102.2 hPa | - | - | - | - |
| 1787726961 | 19.44° C | 62% | 102.2 hPa | - | - | - | - |
| 1787726895 | 20° C | 62% | 102.2 hPa | - | - | - | - |
| 1787726829 | 19.44° C | 63% | 102.2 hPa | - | - | - | - |
| 1787726763 | 20° C | 62% | 102.2 hPa | - | - | - | - |
| 1787726697 | 19.44° C | 62% | 102.2 hPa | - | - | - | - |
| 1787726631 | 22.22° C | 56% | 102.2 hPa | - | - | - | - |
| 1787726566 | 22.78° C | 57% | 102.2 hPa | - | - | - | - |
| 1787726500 | 20° C | 61% | 102.2 hPa | - | - | - | - |
| 1787726434 | 19.44° C | 64% | 102.2 hPa | - | - | - | - |
| 1787726368 | 19.44° C | 64% | 102.2 hPa | - | - | - | - |
| 1787726302 | 18.89° C | 64% | 102.2 hPa | - | - | - | - |
| 1787726236 | 20.56° C | 60% | 102.2 hPa | - | - | - | - |
| 1787726170 | 19.44° C | 64% | 102.2 hPa | - | - | - | - |
| 1787726105 | 18.89° C | 65% | 102.2 hPa | - | - | - | - |
| 1787726039 | 18.33° C | 65% | 102.2 hPa | - | - | - | - |
| 1787725973 | 18.33° C | 65% | 102.2 hPa | - | - | - | - |
| 1787725907 | 19.44° C | 63% | 102.2 hPa | - | - | - | - |
| 1787725841 | 19.44° C | 62% | 102.2 hPa | - | - | - | - |
| 1787725775 | 20.56° C | 60% | 102.2 hPa | - | - | - | - |
| 1787725710 | 20° C | 60% | 102.2 hPa | - | - | - | - |
* Rain since midnight (hover to see other rain measurements)
** Current wind speed in m/s (hover to see current wind gust speed)